CAPE
0 0 0 0 0 0 0 0 0 0 0 0 0 0 0 0 0 0 3 2 0 0 11 357 414 508 601 435 392 305 196 73 112 7 63 1618 2211 1841 1841 1846 1673 1656 1862 1869
0 0 0 0 0 0 0 0 0 0 0 0 0 0 0 0 0 0 0 0 0 0 0 278 377 433 548 549 432 304 158 37 0 14 11 422 1759 2217 2126 1980 1860 1813 1869 1971
0 0 0 0 0 0 0 0 0 0 0 0 0 0 0 0 0 0 0 0 0 0 0 12 167 287 306 314 321 236 198 160 27 10 81 694 1370 1602 2082 1987 1689 1277 1548 1848
0 0 0 0 0 0 0 0 0 0 0 0 0 0 0 0 0 0 0 0 0 0 0 0 0 0 16 25 195 170 174 134 479 736 380 638 1238 1695 1735 1531 1228 1210 974 1225
0 0 0 0 0 0 0 0 0 0 0 0 0 0 0 0 0 0 0 0 0 0 0 0 60 177 349 454 582 583 673 818 858 875 1055 1081 1105 1077 869 856 846 828 648 528
0 0 0 0 0 0 0 0 0 0 0 0 0 0 0 0 0 0 0 0 0 0 1 224 449 564 503 438 450 565 643 629 696 840 863 826 751 572 486 406 287 304 280 286
0 0 0 0 0 0 0 0 0 0 0 0 0 0 0 0 0 0 0 0 0 27 339 592 566 474 443 427 468 446 433 417 423 386 362 248 218 171 116 80 54 59 99 135
0 0 0 0 0 0 0 0 0 0 0 0 0 0 0 0 0 0 0 0 0 185 634 628 412 193 59 28 13 5 0 0 0 2 6 23 50 90 107 84 39 17 1 0
0 0 0 0 0 0 0 0 0 0 0 0 0 0 0 8 8 0 0 0 6 443 744 499 165 36 10 3 0 2 0 0 0 0 0 0 0 0 0 0 0 0 0 0
0 0 0 0 0 0 1 0 6 10 0 0 3 10 0 13 19 6 0 0 30 382 448 170 27 22 15 15 11 10 0 0 0 0 0 0 0 0 0 0 0 0 0 0
0 0 0 6 0 0 0 0 15 21 3 0 0 0 47 64 65 22 0 0 100 344 221 97 57 27 20 10 13 4 0 0 0 0 0 0 0 0 0 0 0 0 0 0
0 0 0 0 67 30 0 0 0 2 4 37 4 0 81 51 52 3 0 36 221 277 124 83 51 22 16 18 8 0 0 0 0 0 0 0 0 0 0 0 0 0 0 0
0 0 0 0 30 65 41 4 14 26 55 54 1 0 238 142 64 33 11 227 151 80 63 40 48 25 13 5 0 0 0 0 0 0 0 0 0 0 0 0 0 0 0 0
0 0 0 0 8 129 149 58 11 36 44 65 32 40 144 73 8 4 2 30 11 9 2 4 35 10 1 0 0 0 0 0 0 0 0 0 0 0 0 0 0 0 0 0
4 0 20 104 131 130 103 111 70 64 39 70 42 22 38 79 28 12 0 11 10 2 7 62 14 1 0 0 0 0 0 0 0 0 0 0 0 0 0 0 0 0 0 0
18 49 133 86 48 50 62 37 74 80 77 51 97 89 89 142 142 41 74 19 0 16 11 9 15 2 2 0 0 0 0 0 0 0 0 0 0 0 0 0 0 0 0 0
74 39 36 17 57 16 25 38 14 12 15 0 12 16 139 123 81 46 56 32 11 4 0 1 18 15 0 0 0 0 0 0 0 0 0 0 0 0 0 0 0 0 0 0
35 37 34 17 19 3 3 6 6 11 18 9 0 99 102 40 44 72 70 61 46 3 0 0 0 0 0 0 0 0 0 0 0 0 0 0 0 0 0 0 0 0 0 0
30 36 32 24 12 0 0 0 1 2 0 0 26 9 5 9 29 25 17 5 0 0 0 0 0 0 0 0 0 0 0 0 0 0 0 0 0 0 0 0 0 0 0 0
27 22 12 17 1 0 0 0 0 0 0 0 18 0 0 0 1 0 0 0 0 0 0 0 0 0 0 0 0 0 0 0 0 0 0 0 0 0 0 0 0 0 0 0
2 1 2 0 0 0 0 0 0 0 0 0 0 1 0 0 0 0 0 0 2 4 0 0 0 0 0 0 0 0 0 0 0 0 0 0 0 0 0 0 0 0 0 2
0 0 0 0 0 0 0 0 0 0 0 0 0 0 0 0 0 1 9 10 4 0 0 0 0 0 0 0 0 0 0 0 0 0 0 0 0 0 0 0 0 0 0 0
0 0 0 0 0 0 0 0 0 0 0 0 0 0 0 0 0 0 0 0 0 0 0 0 0 0 0 0 0 0 0 0 0 0 0 0 0 0 0 0 4 11 4 0
0 0 0 0 0 0 0 0 4 0 0 0 0 0 0 0 0 0 0 0 0 0 0 0 0 0 0 0 0 0 0 0 0 0 0 0 0 0 1 9 2 0 0 0
0 0 0 0 0 0 0 0 0 0 0 0 0 0 0 0 0 0 0 0 0 0 0 0 0 0 0 0 0 0 0 0 0 0 0 0 0 7 6 1 0 1 3 5
0 0 0 0 0 0 5 2 0 0 0 0 0 0 0 0 0 0 0 0 0 0 0 0 0 0 0 0 0 0 0 0 0 0 0 5 8 4 0 0 0 0 0 1
CIN
0 0 0 0 0 0 0 0 0 0 0 0 0 0 0 0 0 -1 -92 -25 0 0 -30 -329 -338 -290 -226 -199 -126 -180 -226 -455 -358 -314 -477 -169 -110 -104 -95 -34 -38 -25 -21 -10
0 0 0 0 0 0 0 0 0 0 0 0 0 0 0 0 0 0 0 -40 0 0 0 -191 -260 -242 -195 -162 -173 -201 -361 -301 0 -186 -155 -312 -104 -63 -55 -38 -50 -48 -40 -16
0 0 0 0 0 0 0 0 0 0 0 0 0 0 0 0 0 0 0 0 0 0 0 -89 -175 -193 -172 -199 -229 -276 -140 -67 -45 -81 -446 -207 -67 -77 -36 -24 -18 -35 -31 -18
0 0 0 0 0 0 0 0 0 0 0 0 0 0 0 0 0 0 0 0 0 0 0 0 0 0 -34 -224 -200 -245 -200 -391 -236 -151 -152 -139 -66 -45 -25 -27 -31 -22 -64 -61
0 0 0 0 0 0 0 0 0 0 0 0 0 -4 0 0 0 0 0 0 0 0 0 0 -234 -232 -218 -189 -151 -150 -125 -85 -73 -66 -55 -46 -35 -21 -38 -35 -34 -31 -26 -26
0 0 0 0 0 0 0 0 0 0 0 0 0 0 0 0 0 0 0 0 0 0 -13 -141 -94 -82 -89 -101 -100 -96 -81 -68 -55 -39 -35 -24 -15 -15 -13 -12 -21 -32 -26 -24
0 0 0 0 0 0 0 0 0 0 0 0 0 0 0 0 0 0 0 0 0 -351 -202 -85 -57 -60 -92 -106 -99 -99 -83 -72 -55 -40 -34 -62 -84 -101 -86 -77 -71 -62 -46 -28
0 0 0 0 0 0 0 0 0 0 0 0 0 0 0 0 0 0 0 0 0 -238 -113 -72 -79 -50 -86 -217 -244 -250 -21 -30 0 -17 -13 -143 -137 -88 -57 -50 -79 -90 -7 0
0 0 0 0 0 0 0 0 0 -1 0 0 0 0 0 -122 -160 0 0 0 -187 -151 -87 -51 -49 -38 -27 -52 -4 -44 0 0 0 0 0 0 0 0 0 0 0 0 0 0
0 0 0 0 0 0 -3 0 -51 -33 0 0 -20 -96 -32 -175 -163 -323 0 0 -342 -155 -86 -82 -42 -33 -39 -52 -41 -33 0 0 0 0 0 0 0 0 0 0 0 0 0 0
0 0 0 -22 0 0 0 0 -45 -46 -21 0 0 -38 -128 -119 -89 -123 0 0 -294 -151 -125 -62 -57 -54 -57 -45 -39 -32 0 0 0 0 0 0 0 0 0 0 0 0 0 0
0 0 0 -3 -24 -16 0 0 0 -25 -90 -80 -23 0 -90 -109 -218 -20 0 -252 -186 -85 -59 -69 -62 -58 -50 -42 -43 0 0 0 0 0 0 0 0 0 0 0 0 0 0 0
0 0 0 -1 -23 -23 -19 -48 -22 -33 -92 -133 -22 0 -204 -241 -115 -308 -69 -65 -74 -103 -29 -33 -42 -32 -37 -47 0 0 0 0 0 0 0 0 0 0 0 0 0 0 0 0
0 0 0 0 -33 -58 -50 -118 -65 -31 -38 -89 -79 -100 -212 -222 -133 -201 -43 -76 -92 -112 -150 -76 -91 -164 -93 0 0 0 0 0 0 0 0 0 0 0 0 0 0 0 0 0
-78 0 -92 -146 -74 -48 -46 -33 -44 -43 -31 -18 -29 -54 -248 -232 -122 -127 -12 -154 -89 -96 -144 -85 -83 -27 0 0 0 0 0 0 0 0 0 0 0 0 0 0 0 0 0 0
-127 -108 -105 -85 -38 -52 -37 -40 -25 -29 -34 -167 -122 -104 -222 -200 -98 -189 -151 -37 -37 -10 -7 -75 -41 -20 -16 0 0 0 0 0 0 0 0 0 0 0 0 0 0 0 0 0
-83 -107 -33 -60 -91 -44 -47 -24 -18 -22 -30 0 -61 -86 -177 -153 -149 -62 -134 -38 -11 0 0 -1 -4 -6 0 0 0 0 0 0 0 0 0 0 0 0 0 0 0 0 0 0
-33 -41 -52 -49 -42 -6 -29 -71 -28 -5 -8 -16 0 -88 -106 -154 -107 -97 -43 -8 0 -4 0 0 0 0 0 0 0 0 0 0 0 0 0 0 0 0 0 0 0 0 0 0
-20 -25 -30 -17 -19 0 -5 0 -2 0 -5 0 -79 -68 -60 -52 -46 -36 -50 -40 0 0 0 0 0 0 0 0 0 0 0 0 0 0 0 0 0 0 0 0 0 0 0 0
-22 -3 -10 -23 -7 0 0 0 0 0 0 0 -34 -11 -2 0 -9 0 0 0 0 0 0 0 0 0 0 0 0 0 0 0 0 0 0 0 0 0 0 0 0 0 0 0
-9 -9 -4 0 -5 0 0 0 0 0 0 0 0 -21 0 0 0 0 0 -5 -11 -12 0 0 0 0 0 0 0 0 0 0 0 0 0 0 0 0 0 0 0 0 0 0
0 0 0 0 0 0 0 0 0 0 0 0 0 0 0 0 0 -4 -7 -4 -8 -1 0 0 0 0 0 0 0 0 0 0 0 0 0 0 0 0 0 0 0 0 0 0
0 0 0 0 0 0 0 0 0 0 0 0 0 0 0 0 0 0 0 0 0 0 0 0 0 0 0 0 0 0 0 0 0 0 0 0 0 0 0 0 0 0 -1 0
0 0 0 0 0 0 0 -2 -10 -14 0 0 0 0 0 0 0 0 0 0 0 0 0 0 0 0 0 0 0 0 0 0 0 0 0 0 0 0 0 0 -1 0 0 0
0 0 0 0 0 0 0 0 -3 0 0 0 0 0 0 0 0 0 0 0 0 0 0 0 0 0 0 0 0 0 0 0 0 0 0 0 0 0 0 0 0 0 0 -1
0 0 0 0 0 -6 -20 -21 -2 0 0 0 0 0 0 0 0 0 0 0 0 0 0 0 0 0 0 0 0 0 0 0 0 0 0 0 0 0 0 0 0 0 0 0
Wind_Speed
nan nan nan nan nan nan nan nan nan nan nan nan nan nan nan nan nan nan nan nan nan nan nan 57 56 56 59 58 62 56 47 nan 38 nan nan 33 29 30 27 36 41 45 49 49
nan nan nan nan nan nan nan nan nan nan nan nan nan nan nan nan nan nan nan nan nan nan nan 64 59 59 59 61 60 56 43 nan nan nan nan 34 36 36 33 38 39 43 46 46
nan nan nan nan nan nan nan nan nan nan nan nan nan nan nan nan nan nan nan nan nan nan nan nan 62 59 59 58 56 53 41 27 nan nan nan 31 33 38 38 40 42 44 39 43
nan nan nan nan nan nan nan nan nan nan nan nan nan nan nan nan nan nan nan nan nan nan nan nan nan nan nan nan 58 56 55 51 33 33 32 32 37 38 38 40 40 37 44 50
nan nan nan nan nan nan nan nan nan nan nan nan nan nan nan nan nan nan nan nan nan nan nan nan nan 61 61 61 61 62 67 68 61 59 55 49 52 49 46 45 47 46 45 43
nan nan nan nan nan nan nan nan nan nan nan nan nan nan nan nan nan nan nan nan nan nan nan 61 56 52 49 47 54 58 67 64 65 60 55 54 58 56 52 47 46 44 39 45
nan nan nan nan nan nan nan nan nan nan nan nan nan nan nan nan nan nan nan nan nan nan 48 39 33 32 38 41 44 48 57 57 54 54 52 45 44 44 42 nan nan nan nan 39
nan nan nan nan nan nan nan nan nan nan nan nan nan nan nan nan nan nan nan nan nan 44 39 40 36 29 nan nan nan nan nan nan nan nan nan nan nan nan 46 nan nan nan nan nan
nan nan nan nan nan nan nan nan nan nan nan nan nan nan nan nan nan nan nan nan nan 42 35 32 35 nan nan nan nan nan nan nan nan nan nan nan nan nan nan nan nan nan nan nan
nan nan nan nan nan nan nan nan nan nan nan nan nan nan nan nan nan nan nan nan nan 35 35 30 nan nan nan nan nan nan nan nan nan nan nan nan nan nan nan nan nan nan nan nan
nan nan nan nan nan nan nan nan nan nan nan nan nan nan nan nan nan nan nan nan 25 22 22 nan nan nan nan nan nan nan nan nan nan nan nan nan nan nan nan nan nan nan nan nan
nan nan nan nan nan nan nan nan nan nan nan nan nan nan nan nan nan nan nan nan 32 24 22 nan nan nan nan nan nan nan nan nan nan nan nan nan nan nan nan nan nan nan nan nan
nan nan nan nan nan nan nan nan nan nan nan nan nan nan 23 34 nan nan nan 46 42 nan nan nan nan nan nan nan nan nan nan nan nan nan nan nan nan nan nan nan nan nan nan nan
nan nan nan nan nan 24 29 nan nan nan nan nan nan nan 24 nan nan nan nan nan nan nan nan nan nan nan nan nan nan nan nan nan nan nan nan nan nan nan nan nan nan nan nan nan
nan nan nan 27 28 27 28 32 nan nan nan nan nan nan nan nan nan nan nan nan nan nan nan nan nan nan nan nan nan nan nan nan nan nan nan nan nan nan nan nan nan nan nan nan
nan nan 28 nan nan nan nan nan nan nan nan nan nan nan nan 25 21 nan nan nan nan nan nan nan nan nan nan nan nan nan nan nan nan nan nan nan nan nan nan nan nan nan nan nan
nan nan nan nan nan nan nan nan nan nan nan nan nan nan 28 29 nan nan nan nan nan nan nan nan nan nan nan nan nan nan nan nan nan nan nan nan nan nan nan nan nan nan nan nan
nan nan nan nan nan nan nan nan nan nan nan nan nan nan 30 nan nan nan nan nan nan nan nan nan nan nan nan nan nan nan nan nan nan nan nan nan nan nan nan nan nan nan nan nan
nan nan nan nan nan nan nan nan nan nan nan nan nan nan nan nan nan nan nan nan nan nan nan nan nan nan nan nan nan nan nan nan nan nan nan nan nan nan nan nan nan nan nan nan
nan nan nan nan nan nan nan nan nan nan nan nan nan nan nan nan nan nan nan nan nan nan nan nan nan nan nan nan nan nan nan nan nan nan nan nan nan nan nan nan nan nan nan nan
nan nan nan nan nan nan nan nan nan nan nan nan nan nan nan nan nan nan nan nan nan nan nan nan nan nan nan nan nan nan nan nan nan nan nan nan nan nan nan nan nan nan nan nan
nan nan nan nan nan nan nan nan nan nan nan nan nan nan nan nan nan nan nan nan nan nan nan nan nan nan nan nan nan nan nan nan nan nan nan nan nan nan nan nan nan nan nan nan
nan nan nan nan nan nan nan nan nan nan nan nan nan nan nan nan nan nan nan nan nan nan nan nan nan nan nan nan nan nan nan nan nan nan nan nan nan nan nan nan nan nan nan nan
nan nan nan nan nan nan nan nan nan nan nan nan nan nan nan nan nan nan nan nan nan nan nan nan nan nan nan nan nan nan nan nan nan nan nan nan nan nan nan nan nan nan nan nan
nan nan nan nan nan nan nan nan nan nan nan nan nan nan nan nan nan nan nan nan nan nan nan nan nan nan nan nan nan nan nan nan nan nan nan nan nan nan nan nan nan nan nan nan
nan nan nan nan nan nan nan nan nan nan nan nan nan nan nan nan nan nan nan nan nan nan nan nan nan nan nan nan nan nan nan nan nan nan nan nan nan nan nan nan nan nan nan nan
Wind_Direction
nan nan nan nan nan nan nan nan nan nan nan nan nan nan nan nan nan nan nan nan nan nan nan 260 270 269 276 274 276 280 279 nan 274 nan nan 265 275 282 294 283 273 273 281 290
nan nan nan nan nan nan nan nan nan nan nan nan nan nan nan nan nan nan nan nan nan nan nan 260 262 268 275 278 279 282 285 nan nan nan nan 275 270 274 275 276 276 268 274 283
nan nan nan nan nan nan nan nan nan nan nan nan nan nan nan nan nan nan nan nan nan nan nan nan 262 265 268 275 280 283 281 276 nan nan nan 279 280 279 279 274 274 279 283 290
nan nan nan nan nan nan nan nan nan nan nan nan nan nan nan nan nan nan nan nan nan nan nan nan nan nan nan nan 270 274 274 274 267 267 274 283 286 281 281 279 279 279 281 282
nan nan nan nan nan nan nan nan nan nan nan nan nan nan nan nan nan nan nan nan nan nan nan nan nan 261 263 264 265 266 270 275 278 274 273 281 280 286 282 280 277 274 277 275
nan nan nan nan nan nan nan nan nan nan nan nan nan nan nan nan nan nan nan nan nan nan nan 264 263 266 267 267 264 264 264 266 266 270 270 271 274 271 271 272 273 271 272 272
nan nan nan nan nan nan nan nan nan nan nan nan nan nan nan nan nan nan nan nan nan nan 262 267 283 279 272 265 264 263 265 264 267 269 272 271 271 275 277 nan nan nan nan 272
nan nan nan nan nan nan nan nan nan nan nan nan nan nan nan nan nan nan nan nan nan 259 270 274 269 272 nan nan nan nan nan nan nan nan nan nan nan nan 271 nan nan nan nan nan
nan nan nan nan nan nan nan nan nan nan nan nan nan nan nan nan nan nan nan nan nan 260 270 259 250 nan nan nan nan nan nan nan nan nan nan nan nan nan nan nan nan nan nan nan
nan nan nan nan nan nan nan nan nan nan nan nan nan nan nan nan nan nan nan nan nan 252 250 248 nan nan nan nan nan nan nan nan nan nan nan nan nan nan nan nan nan nan nan nan
nan nan nan nan nan nan nan nan nan nan nan nan nan nan nan nan nan nan nan nan 245 251 253 nan nan nan nan nan nan nan nan nan nan nan nan nan nan nan nan nan nan nan nan nan
nan nan nan nan nan nan nan nan nan nan nan nan nan nan nan nan nan nan nan nan 227 223 241 nan nan nan nan nan nan nan nan nan nan nan nan nan nan nan nan nan nan nan nan nan
nan nan nan nan nan nan nan nan nan nan nan nan nan nan 243 248 nan nan nan 225 223 nan nan nan nan nan nan nan nan nan nan nan nan nan nan nan nan nan nan nan nan nan nan nan
nan nan nan nan nan 205 205 nan nan nan nan nan nan nan 284 nan nan nan nan nan nan nan nan nan nan nan nan nan nan nan nan nan nan nan nan nan nan nan nan nan nan nan nan nan
nan nan nan 204 204 225 225 230 nan nan nan nan nan nan nan nan nan nan nan nan nan nan nan nan nan nan nan nan nan nan nan nan nan nan nan nan nan nan nan nan nan nan nan nan
nan nan 204 nan nan nan nan nan nan nan nan nan nan nan nan 274 290 nan nan nan nan nan nan nan nan nan nan nan nan nan nan nan nan nan nan nan nan nan nan nan nan nan nan nan
nan nan nan nan nan nan nan nan nan nan nan nan nan nan 283 289 nan nan nan nan nan nan nan nan nan nan nan nan nan nan nan nan nan nan nan nan nan nan nan nan nan nan nan nan
nan nan nan nan nan nan nan nan nan nan nan nan nan nan 270 nan nan nan nan nan nan nan nan nan nan nan nan nan nan nan nan nan nan nan nan nan nan nan nan nan nan nan nan nan
nan nan nan nan nan nan nan nan nan nan nan nan nan nan nan nan nan nan nan nan nan nan nan nan nan nan nan nan nan nan nan nan nan nan nan nan nan nan nan nan nan nan nan nan
nan nan nan nan nan nan nan nan nan nan nan nan nan nan nan nan nan nan nan nan nan nan nan nan nan nan nan nan nan nan nan nan nan nan nan nan nan nan nan nan nan nan nan nan
nan nan nan nan nan nan nan nan nan nan nan nan nan nan nan nan nan nan nan nan nan nan nan nan nan nan nan nan nan nan nan nan nan nan nan nan nan nan nan nan nan nan nan nan
nan nan nan nan nan nan nan nan nan nan nan nan nan nan nan nan nan nan nan nan nan nan nan nan nan nan nan nan nan nan nan nan nan nan nan nan nan nan nan nan nan nan nan nan
nan nan nan nan nan nan nan nan nan nan nan nan nan nan nan nan nan nan nan nan nan nan nan nan nan nan nan nan nan nan nan nan nan nan nan nan nan nan nan nan nan nan nan nan
nan nan nan nan nan nan nan nan nan nan nan nan nan nan nan nan nan nan nan nan nan nan nan nan nan nan nan nan nan nan nan nan nan nan nan nan nan nan nan nan nan nan nan nan
nan nan nan nan nan nan nan nan nan nan nan nan nan nan nan nan nan nan nan nan nan nan nan nan nan nan nan nan nan nan nan nan nan nan nan nan nan nan nan nan nan nan nan nan
nan nan nan nan nan nan nan nan nan nan nan nan nan nan nan nan nan nan nan nan nan nan nan nan nan nan nan nan nan nan nan nan nan nan nan nan nan nan nan nan nan nan nan nan